Regional Weather Roundup
Issued by NWS

Home | Current Version | Previous Version | Graphics & Text | Print | Product List | Glossary On
Versions: 1 2 3 4 5 6 7 8 9 10 11 12 13 14 15 16 17 18 19 20 21 22 23 24 25 26 27 28
000
ASUS45 KTFX 171410
RWRMT
MONTANA REGIONAL WEATHER ROUNDUP
NATIONAL WEATHER SERVICE GREAT FALLS MT
700 AM MST FRI NOV 17 2017

NOTE: "FAIR" INDICATES FEW OR NO CLOUDS BELOW 12000 FEET WITH NO
SIGNIFICANT WEATHER AND/OR OBSTRUCTIONS TO VISIBILITY.

MTZ001>007-043-171500-
WEST OF THE DIVIDE

CITY           SKY/WX    TMP DP  RH WIND       PRES   REMARKS
KALISPELL      CLOUDY    34  33  96 S10       29.63S WCI  26
MISSOULA       FOG       28  27  96 NE6       29.71R VSB 1/4 WCI  22
BUTTE          LGT SNOW  26  21  81 NW8       29.67R WCI  18
MULLAN PASS    LGT SNOW  22  20  92 VRB7      29.61R FOG     WCI  13
ANACONDA         N/A     30  19  64 SW6       29.67R WCI  24
HAMILTON         N/A     34  25  69 SW5       29.72R
LIBBY            N/A     32  32 100 CALM      29.64R VSB 3/4
RONAN            N/A     33  28  82 E1        29.74R
$$

MTZ008-052>055-171500-
SOUTHWEST MONTANA

CITY           SKY/WX    TMP DP  RH WIND       PRES   REMARKS
BOZEMAN        CLOUDY    28  25  88 N6        29.66R WCI  22
DILLON         CLOUDY    31  20  63 SW6       29.66R WCI  25
W YELLOWSTONE  CLOUDY    30  27  86 SW8       29.62F WCI  23
ENNIS          CLOUDY    32  21  64 CALM      29.70R
$$

MTZ009-010-012-014-046-048-049-054-171500-
EAST SLOPES AND CENTRAL MONTANA

CITY           SKY/WX    TMP DP  RH WIND       PRES   REMARKS
CUT BANK       FAIR      32  25  75 W9        29.54R WCI  24
GREAT FALLS    FAIR      31  20  63 SW10      29.57S WCI  22
MALMSTROM AFB  MOCLDY    30  22  73 SW12      29.57S WCI  20
HELENA         FAIR      27  23  85 S5        29.64R
BOWMANS CRNR   FAIR      29  21  70 S17       29.54S WCI  18
CHOTEAU          N/A     32  18  55 W8        29.56R WCI  25
POWER          MOCLDY    30  21  69 SW9       29.56R WCI  22
RAYNESFORD     MOCLDY    33  18  52 CALM      29.58R
ULM            MOCLDY    35  21  56 SW18G24   29.58S WCI  24
$$

MTZ011-013-016-021-045-047-050-051-171500-
NORTH CENTRAL MONTANA

CITY           SKY/WX    TMP DP  RH WIND       PRES   REMARKS
HAVRE          FAIR      24  19  81 SW6       29.57S WCI  17
LEWISTOWN      FAIR      28  20  71 SW10      29.59S WCI  19
N BAR RANCH    FAIR      27  16  63 CALM      29.61S
CHINOOK          N/A     14  12  92 CALM      29.59S
DENTON         MOCLDY    32  18  56 CALM      29.56S
GEYSER         FAIR      29  18  65 SW14      29.57S WCI  18
GRASS RANGE    MOCLDY    28  19  71 W5        29.56S
STANFORD       FAIR      32  19  57 W16G23    29.57S WCI  21
WINIFRED       MOCLDY    31  19  59 W7        29.58R WCI  25
$$

MTZ017>020-022>027-061-062-171500-
NORTHEAST MONTANA

CITY           SKY/WX    TMP DP  RH WIND       PRES   REMARKS
GLASGOW        FAIR      15  12  88 E8        29.61F WCI   4
GLENDIVE       FAIR      24  21  88 CALM      29.65R
JORDAN           N/A     23  19  85 CALM      29.60F
SIDNEY         FAIR      15  12  88 CALM      29.68R
WOLF POINT     FAIR      13   8  81 E5        29.66R
MALTA          CLEAR     12  10  92 CALM      29.61S
PLENTYWOOD       N/A     12   7  79 CALM      29.64F
POPLAR           N/A     10   7  85 NW3       29.68R
$$

MTZ028>42-056>058-171500-
SOUTHCENTRAL AND SOUTHEAST MONTANA

CITY           SKY/WX    TMP DP  RH WIND       PRES   REMARKS
BAKER          FAIR      29  27  92 S6        29.65S WCI  23
BILLINGS       MOCLDY    33  29  85 N3        29.63R
LIVINGSTON     CLOUDY    31  27  85 VRB6      29.62R WCI  25
MILES CITY     FAIR      33  29  85 SW5       29.64S
BIG TIMBER     CLOUDY    30  27  86 W7        29.63S WCI  23
FORSYTH          N/A     34  34 100 CALM      29.62F
HARLOWTON      FAIR      26  20  77 W12       29.60R WCI  16
LAUREL           N/A     34  32  93 W5        29.63S
ROUNDUP          N/A     31  21  66 S3        29.56R
$$

REGIONAL REPORTS...DAKOTAS

CITY           SKY/WX    TMP DP  RH WIND       PRES   REMARKS
WILLISTON      FAIR      13   9  84 SW3       29.69R
MINOT          FAIR      16   9  74 NW9       29.68R WCI   4
DICKINSON      FAIR      26  21  81 W7        29.64R WCI  18
BEACH          MOCLDY    23  23 100 S7        29.67S WCI  15
CROSBY         CLOUDY     9   5  85 NW8       29.68R WCI  -4
TIOGA          FAIR      10   9  92 NW8       29.67R WCI  -1
WATFORD CITY   FAIR      12  10  92 CALM      29.68S
BISMARCK       FAIR      34  27  75 N9        29.68R WCI  27
GRAND FORKS    CLOUDY    32  29  88 W8        29.61F WCI  25
FARGO          CLOUDY    34  29  82 SW6       29.63S WCI  29
BUFFALO SD       N/A     35  31  85 S5        29.58F
RAPID CITY     CLOUDY    35  33  92 S5        29.65F
$$

REGIONAL REPORTS...WYOMING/IDAHO/WASHINGTON

CITY           SKY/WX    TMP DP  RH WIND       PRES   REMARKS
GILLETTE       CLOUDY    33  32  96 CALM      29.67R
SHERIDAN       LGT SNOW  33  33 100 SW3       29.68S FOG
BUFFALO WY     SNOW      32  30  92 E5        29.69R VSB 1/2
CODY           MIX PCPN  32  30  92 N3        29.63F
YELLOWSTONE LA   N/A     24  23  96 W7G21     29.66R WCI  16
IDAHO FALLS    CLOUDY    36  35  96 SW17      29.72R WCI  26
SALMON         CLOUDY    30  28  92 CALM      29.72R
BOISE          CLOUDY    41  32  70 NW10G17   29.84R
SPOKANE        CLOUDY    33  32  96 SW12      29.74R WCI  24
$$

REGIONAL REPORTS...ALBERTA

CITY           SKY/WX    TMP DP  RH WIND       PRES   REMARKS
EDMONTON       CLOUDY     7   0  72 W7        29.64R WCI  -5
CALGARY        LGT SNOW   7   3  85 N13       29.53R VSB 1   WCI  -9
LETHBRIDGE     PTCLDY     7   3  85 NE6       29.54R FOG     WCI  -3
MEDICINE HAT   PTCLDY     9   5  85 NE5       29.59R
$$

REGIONAL REPORTS...SASKATCHEWAN

CITY           SKY/WX    TMP DP  RH WIND       PRES   REMARKS
SWIFT CURRENT  MOCLDY     0  -6  78 SE5       29.57R
REGINA         FLURRIES   9   5  85 W8        29.63S WCI  -4
SASKATOON      MOCLDY     3  -2  78 SW10      29.65S WCI -12
$$




USA.gov is the U.S. government's official web portal to all federal, state and local government web resources and services.